Regional Weather Roundup
Issued by NWS Bismarck, ND

Home | Current Version | Previous Version | Text Only | Print | Product List | Glossary On
Versions: 1 2 3 4 5 6 7 8 9 10 11 12 13 14 15 16 17 18 19 20 21 22 23 24 25 26 27 28 29 30 31 32 33 34 35 36 37 38 39 40 41 42 43 44 45 46 47 48 49 50
000
ASUS43 KBIS 231420
RWRBIS

NWR BROADCAST TEXT
NATIONAL WEATHER SERVICE BISMARCK ND
900 AM CDT SAT MAY 23 2015

NOTE: "FAIR" INDICATES FEW OR NO CLOUDS BELOW 12,000 FEET WITH NO
SIGNIFICANT WEATHER AND/OR OBSTRUCTIONS TO VISIBILITY.


CITY           SKY/WX    TMP DP  RH WIND       PRES   REMARKS
WILLISTON      SUNNY     58  41  53 NE3       30.13S
MINOT          SUNNY     60  40  47 SW8       30.13F
MINOT AFB      MOSUNNY   62  43  50 SW7       30.12F
BISMARCK       MOSUNNY   54  45  71 SE7       30.17S
DICKINSON      MOSUNNY   50  43  77 SE10      30.10F
GARRISON         N/A     56  42  59 S6        30.15S
HETTINGER ARPT PTSUNNY   49  44  83 SE10      30.11S
JAMESTOWN      SUNNY     59  43  55 S10       30.17S
BEACH          FAIR      50  46  87 SE16      30.10S
CARRINGTON     FAIR      59  46  63 W9        30.17S
CROSBY         FAIR      63  41  45 SW6       30.13S
HARVEY         PTSUNNY   57  45  62 SW10      30.16S
HAZEN          FAIR      54  45  71 CALM      30.15S
LINTON         FAIR      55  46  71 SE9       30.16S
MANDAN         FAIR      54  45  71 SE7       30.17S
OAKES            N/A     57  45  62 SW7       30.19F
STANLEY        FAIR      59  50  72 SE8       30.15R
TIOGA          FAIR      59  41  51 CALM      30.16F
WATFORD CITY   FAIR      55  39  54 SE13      30.11S
$$

CITY           SKY/WX    TMP DP  RH WIND       PRES   REMARKS
GRAND FORKS    MOSUNNY   59  44  57 SW3       30.14S
GRAND FORKS AF SUNNY     62  44  52 W8        30.14S
DEVILS LAKE    SUNNY     61  45  55 SW10      30.15S
FARGO          MOSUNNY   62  45  53 SW8       30.19S
CANDO          FAIR      59  45  58 S5        30.15S
CAVALIER       FAIR      64  46  52 CALM      30.13S
GRAFTON        FAIR      63  43  48 SE6       30.14F
LANGDON        FAIR      68  43  40 CALM      30.15S
ROLLA          FAIR      70  36  28 NW10      30.14S
WALHALLA       FAIR      68  41  37 CALM      30.13S
$$

CITY           SKY/WX    TMP DP  RH WIND       PRES   REMARKS
ABERDEEN       CLOUDY    56  45  66 E5        30.19F
MOBRIDGE       PTSUNNY   55  47  74 SE10      30.12F
BUFFALO          N/A     50  44  80 SE13      30.01R
RAPID CITY     CLOUDY    49  45  86 SE13      30.06S
GLASGOW        PTSUNNY   56  40  55 E14       30.07R
SIDNEY         SUNNY     57  41  54 E3        30.12S
WOLF POINT     PTSUNNY   56  42  59 E10       30.09S
GLENDIVE       MOSUNNY   54  43  66 E13       30.09S
MILES CITY     MOSUNNY   52  42  69 CALM      30.02S
BAKER          MOSUNNY   50  42  74 SE16      30.07S
$$

CITY           SKY/WX    TMP DP  RH WIND       PRES   REMARKS
BILLINGS       CLOUDY    52  45  77 NE9       29.99R
GREAT FALLS    RAIN      50  48  93 E7        30.06S FOG
REGINA         MOSUNNY   61  41  48 S6        30.13S
ESTEVAN        PTSUNNY   59  43  55 CALM      30.13S
$$



USA.gov is the U.S. government's official web portal to all federal, state and local government web resources and services.